Raton, NM

12:23 AM MST on February 26, 2017 (GMT -0700)
Raton Municipal-Crews

Weather History for KRTN - May, 2014

Change the Weather History Date:

Friday, May 2, 2014

  Actual Average (KTAD) Record (KTAD)
Temperature  
Mean Temperature 48 °F -  
Max Temperature 72 °F 67 °F 85 °F (1986)
Min Temperature 25 °F 38 °F 21 °F (2013)
Degree Days  
Heating Degree Days 17    
Moisture  
Dew Point 17 °F    
Average Humidity 31    
Maximum Humidity 58    
Minimum Humidity 14    
Precipitation  
Precipitation 0.00 in - - ()
Sea Level Pressure  
Sea Level Pressure 30.02 in    
Wind  
Wind Speed 7 mph (ENE)    
Max Wind Speed 20 mph    
Max Gust Speed 29 mph    
Visibility 10 miles    
Events      
Averages and records for this station are not official NWS values.
T = Trace of Precipitation, MM = Missing Value Source: NWS Daily Summary

Daily Weather History Graph

Daily Weather History Graph

Search for Another Location

Airport or City:

Trip Planner

Search our weather history database for the weather conditions in past years. The results will help you decide how hot, cold, wet, or windy it might be!

Date:

Astronomy

May. 02, 2014 Rise Set
Actual Time 6:02 AM MDT 7:47 PM MDT
Civil Twilight 5:35 AM MDT 8:15 PM MDT
Nautical Twilight 5:01 AM MDT 8:49 PM MDT
Astronomical Twilight 4:25 AM MDT 9:25 PM MDT
Moon 8:44 AM MDT (5/2) 11:10 PM MDT (5/2)
Length of Visible Light 14h 40m
Length of Day
13h 44m
Waxing Crescent, 13% of the Moon is Illuminated
May 2
Waxing Crescent
May 6
First Quarter
May 14
Full
May 21
Last Quarter
May 28
New

Hourly Weather History & Observations

Time (MDT) Temp. Windchill Dew Point Humidity Pressure Visibility Wind Dir Wind Speed Gust Speed Precip Events Conditions
12:53 AM 30.9 °F 26.2 °F 12.0 °F 46% 30.16 in 10.0 mi NE 4.6 mph - N/A   Clear
1:53 AM 28.0 °F 20.8 °F 12.0 °F 51% 30.18 in 10.0 mi ENE 6.9 mph - N/A   Clear
2:53 AM 30.0 °F 23.2 °F 12.0 °F 47% 30.13 in 10.0 mi NE 6.9 mph - N/A   Clear
3:53 AM 26.1 °F 18.4 °F 12.0 °F 55% 30.13 in 10.0 mi NNE 6.9 mph - N/A   Clear
4:53 AM 27.0 °F 20.5 °F 12.0 °F 53% 30.12 in 10.0 mi ENE 5.8 mph - N/A   Clear
5:53 AM 25.0 °F 20.7 °F 12.0 °F 58% 30.14 in 10.0 mi NE 3.5 mph - N/A   Clear
6:53 AM 28.9 °F 23.9 °F 14.0 °F 54% 30.12 in 10.0 mi ENE 4.6 mph - N/A   Clear
7:53 AM 37.0 °F 31.6 °F 15.1 °F 41% 30.11 in 10.0 mi ENE 6.9 mph - N/A   Clear
8:53 AM 46.0 °F 44.8 °F 14.0 °F 28% 30.09 in 10.0 mi Variable 3.5 mph - N/A   Clear
9:53 AM 53.1 °F - 16.0 °F 23% 30.06 in 10.0 mi SSW 4.6 mph - N/A   Clear
10:53 AM 59.0 °F - 17.1 °F 20% 30.04 in 10.0 mi Variable 3.5 mph - N/A   Clear
12:53 PM 70.0 °F - 19.0 °F 14% 29.96 in 10.0 mi NNE 19.6 mph 28.8 mph N/A   Clear
1:53 PM 71.1 °F - 19.9 °F 14% 29.95 in 10.0 mi NE 12.7 mph 26.5 mph N/A   Clear
2:53 PM 71.1 °F - 19.9 °F 14% 29.92 in 10.0 mi East 13.8 mph 27.6 mph N/A   Clear
3:53 PM 69.1 °F - 19.9 °F 15% 29.94 in 10.0 mi East 8.1 mph - N/A   Mostly Cloudy
4:53 PM 69.1 °F - 19.9 °F 15% 29.93 in 10.0 mi ESE 8.1 mph - N/A   Partly Cloudy
5:53 PM 68.0 °F - 19.9 °F 16% 29.94 in 10.0 mi East 8.1 mph - N/A   Mostly Cloudy
6:53 PM 64.0 °F - 21.0 °F 19% 29.94 in 10.0 mi East 5.8 mph - N/A   Partly Cloudy
7:53 PM 60.1 °F - 19.9 °F 21% 29.92 in 10.0 mi South 5.8 mph - N/A   Clear
8:53 PM 55.9 °F - 21.0 °F 26% 29.94 in 10.0 mi West 6.9 mph - N/A   Mostly Cloudy
9:53 PM 55.9 °F - 21.0 °F 26% 29.94 in 10.0 mi West 10.4 mph - N/A   Partly Cloudy
10:53 PM 55.0 °F - 19.9 °F 25% 29.92 in 10.0 mi Calm Calm - N/A   Partly Cloudy
11:53 PM 46.0 °F 41.4 °F 21.9 °F 39% 29.92 in 10.0 mi NNW 9.2 mph - N/A   Partly Cloudy